Location: Fredericksburg
(30.2750°N, 98.8720°W)
Time: 04:47:41
(UTC-05:00)

ISS - All Passes

Search period start: 01 July 2016 00:00
Search period end: 11 July 2016 00:00
Orbit: 402 x 403 km, 51.6° (Epoch: 30 June)

Date Brightness Start Highest point End Pass type
(mag) Time Alt. Az. Time Alt. Az. Time Alt. Az.
01 Jul - 08:03:33 10° WSW 08:06:44 54° NW 08:09:57 10° NE daylight
01 Jul - 14:37:21 10° NNE 14:38:24 11° NNE 14:39:27 10° NE daylight
01 Jul - 16:11:54 10° NW 16:15:07 62° SW 16:18:20 10° SSE daylight
02 Jul - 07:10:48 10° SSW 07:14:00 59° SE 07:17:12 10° NE daylight
02 Jul - 08:49:30 10° NW 08:50:41 12° NW 08:51:53 10° NNW daylight
02 Jul - 15:19:10 10° NW 15:22:22 52° NE 15:25:32 10° ESE daylight
03 Jul - 06:18:38 10° S 06:21:20 24° SE 06:24:01 10° ENE daylight
03 Jul - 07:55:10 10° W 07:57:42 21° NW 08:00:15 10° NNE daylight
03 Jul - 14:26:47 10° NNW 14:29:30 24° NE 14:32:14 10° E daylight
03 Jul - 16:03:21 10° WNW 16:05:49 20° SW 16:08:16 10° S daylight
04 Jul - 05:27:54 10° SE 05:28:43 11° SE 05:29:33 10° ESE visible
04 Jul - 07:01:43 10° WSW 07:04:50 42° NW 07:07:56 10° NNE daylight
04 Jul - 13:34:53 10° N 13:36:32 13° NE 13:38:12 10° ENE daylight
04 Jul - 15:10:01 10° NW 15:13:09 47° SW 15:16:17 10° SSE daylight
05 Jul - 06:08:47 10° SW 06:12:02 78° SE 06:15:17 10° NE visible
05 Jul - 14:17:10 10° NW 14:20:24 68° NE 14:23:38 10° SE daylight
06 Jul - 05:16:24 10° SSW 05:19:19 31° SE 05:22:14 10° ENE visible
06 Jul - 06:53:31 10° W 06:55:47 17° NW 06:58:03 10° N daylight
06 Jul - 13:24:39 10° NNW 13:27:34 29° NE 13:30:28 10° ESE daylight
06 Jul - 15:01:43 10° W 15:03:47 16° SW 15:05:51 10° SSW daylight
07 Jul - 04:24:57 10° SSE 04:26:41 14° SE 04:28:24 10° E visible
07 Jul - 05:59:52 10° WSW 06:02:51 33° NW 06:05:51 10° NNE visible
07 Jul - 12:32:32 10° N 12:34:36 16° NE 12:36:40 10° ENE daylight
07 Jul - 14:08:06 10° WNW 14:11:08 36° SW 14:14:08 10° SSE daylight
08 Jul - 05:06:46 10° SW 05:10:00 80° NW 05:13:16 10° NE visible
08 Jul - 13:15:07 10° NW 13:18:23 88° ENE 13:21:38 10° SE daylight
09 Jul - 04:14:12 10° SSW 04:17:15 39° SE 04:20:19 10° ENE visible
09 Jul - 05:51:53 10° WNW 05:53:48 15° NW 05:55:44 10° N visible
09 Jul - 12:22:29 10° NNW 12:25:33 36° NE 12:28:35 10° ESE daylight
09 Jul - 14:00:13 10° W 14:01:41 13° SW 14:03:09 10° SSW daylight
10 Jul - 03:22:20 10° S 03:24:34 17° SE 03:26:48 10° E visible
10 Jul - 04:57:59 10° WSW 05:00:49 27° NW 05:03:40 10° NNE visible
10 Jul - 11:30:12 10° N 11:32:36 19° NE 11:34:58 10° E daylight
10 Jul - 13:06:11 10° WNW 13:09:02 28° SW 13:11:52 10° S daylight
